Weather History for Greenville, AL

Change the Weather History Date:

Friday, May 23, 2014

  Actual Average Record
Temperature  
Mean Temperature 76 °F -  
Max Temperature 90 °F 86 °F 97 °F (1941)
Min Temperature 63 °F 61 °F 51 °F (1990)
Cooling Degree Days 12    
Growing Degree Days 26 (Base 50)    
Moisture  
Dew Point 64 °F    
Average Humidity 67    
Maximum Humidity 90    
Minimum Humidity 42    
Precipitation  
Precipitation 0.00 in - - ()
Sea Level Pressure  
Sea Level Pressure 30.08 in    
Wind  
Wind Speed 3 mph (NW)    
Max Wind Speed 9 mph    
Max Gust Speed -    
Visibility 9 miles    
Events      
Averages and records for this station are not official NWS values.
T = Trace of Precipitation, MM = Missing Value Source: NWS Daily Summary

Daily Weather History Graph

Daily Weather History Graph

Search for Another Location

Airport:

Trip Planner

Search our weather history database for the weather conditions in past years. The results will help you decide how hot, cold, wet, or windy it might be!

Date:

Astronomy

May. 23, 2014 Rise Set
Actual Time 5:44 AM CDT 7:41 PM CDT
Civil Twilight 5:17 AM CDT 8:09 PM CDT
Nautical Twilight 4:44 AM CDT 8:42 PM CDT
Astronomical Twilight 4:09 AM CDT 9:17 PM CDT
Moon 2:19 AM CDT 2:51 PM CDT
Length of Visible Light 14h 51m
Length of Day
13h 57m
Waning Crescent, 27% of the Moon is Illuminated
May 23
Waning Crescent
May 28
New
Jun 5
First Quarter
Jun 12
Full
Jun 19
Last Quarter

Hourly Weather History & Observations

Time (CDT) Temp. Heat Index Dew Point Humidity Pressure Visibility Wind Dir Wind Speed Gust Speed Precip Events Conditions
12:56 AM 66.9 °F - 63.0 °F 87% 30.08 in 7.0 mi Calm Calm - N/A   Clear
1:56 AM 64.9 °F - 62.1 °F 90% 30.07 in 6.0 mi Calm Calm - N/A   Clear
2:56 AM 64.0 °F - 61.0 °F 90% 30.07 in 7.0 mi Calm Calm - N/A   Clear
3:56 AM 63.0 °F - 60.1 °F 90% 30.08 in 7.0 mi Calm Calm - N/A   Clear
4:56 AM 63.0 °F - 59.0 °F 87% 30.09 in 8.0 mi Calm Calm - N/A   Clear
5:56 AM 68.0 °F - 63.0 °F 84% 30.10 in 7.0 mi WNW 5.8 mph - N/A   Clear
6:56 AM 70.0 °F - 64.0 °F 81% 30.12 in 8.0 mi Calm Calm - N/A   Clear
7:56 AM 73.9 °F - 64.9 °F 73% 30.13 in 9.0 mi WNW 4.6 mph - N/A   Clear
8:56 AM 79.0 °F - 64.9 °F 62% 30.14 in 10.0 mi North 8.1 mph - N/A   Clear
9:56 AM 82.9 °F 84.4 °F 64.0 °F 53% 30.12 in 10.0 mi NNW 8.1 mph - N/A   Clear
10:56 AM 84.9 °F 86.1 °F 64.0 °F 49% 30.12 in 10.0 mi North 9.2 mph - N/A   Clear
11:56 AM 87.1 °F 88.9 °F 64.9 °F 48% 30.11 in 10.0 mi West 9.2 mph - N/A   Partly Cloudy
12:56 PM 88.0 °F 89.3 °F 64.0 °F 45% 30.10 in 10.0 mi WNW 9.2 mph - N/A   Clear
1:56 PM 90.0 °F 91.3 °F 64.0 °F 42% 30.08 in 10.0 mi North 8.1 mph - N/A   Partly Cloudy
2:56 PM 89.1 °F 90.3 °F 64.0 °F 43% 30.06 in 10.0 mi Variable 5.8 mph - N/A   Clear
3:56 PM 89.1 °F 90.3 °F 64.0 °F 43% 30.06 in 10.0 mi West 9.2 mph - N/A   Clear
4:56 PM 89.1 °F 90.0 °F 63.0 °F 42% 30.05 in 10.0 mi WNW 6.9 mph - N/A   Clear
5:56 PM 88.0 °F 89.6 °F 64.9 °F 46% 30.04 in 10.0 mi WNW 4.6 mph - N/A   Clear
6:56 PM 84.9 °F 86.1 °F 64.0 °F 49% 30.04 in 10.0 mi Calm Calm - N/A   Clear
7:56 PM 78.1 °F - 68.0 °F 71% 30.05 in 10.0 mi Calm Calm - N/A   Clear
8:56 PM 75.0 °F - 68.0 °F 79% 30.05 in 10.0 mi Calm Calm - N/A   Clear
9:56 PM 71.1 °F - 66.9 °F 87% 30.06 in 8.0 mi Calm Calm - N/A   Clear
10:56 PM 70.0 °F - 66.0 °F 87% 30.06 in 10.0 mi Calm Calm - N/A   Clear
11:56 PM 69.1 °F - 64.0 °F 84% 30.06 in 10.0 mi Calm Calm - N/A   Clear